This is the latest recevied weather packets stored in our database for station/object K1BES. If no packets are shown the sender has not sent any weather packets the latest 10 day(s).
| Time | Temp. | Humidity | Pressure | Rain* | Wind** | Luminosity | Snow |
|---|---|---|---|---|---|---|---|
| 1787680547 | 34.44° C | 62% | 1019.1 hPa | 0 mm | - | 1013 W/m² | - |
| 1787680245 | 34.44° C | 61% | 1019.2 hPa | 0 mm | - | 1006 W/m² | - |
| 1787679944 | 34.44° C | 60% | 1019.3 hPa | 0 mm | - | 1025 W/m² | - |
| 1787679639 | 33.89° C | 61% | 1019.1 hPa | 0 mm | - | 1043 W/m² | - |
| 1787679335 | 33.33° C | 62% | 1019.5 hPa | 0 mm | - | 939 W/m² | - |
| 1787679031 | 33.89° C | 63% | 1019.3 hPa | 0 mm | - | 792 W/m² | - |
| 1787678730 | 34.44° C | 61% | 1019.5 hPa | 0 mm | - | 628 W/m² | - |
| 1787678430 | 34.44° C | 61% | 1019.5 hPa | 0 mm | - | 733 W/m² | - |
| 1787678126 | 33.89° C | 61% | 1019.7 hPa | 0 mm | - | 955 W/m² | - |
| 1787677825 | 34.44° C | 59% | 1019.9 hPa | 0 mm | - | 922 W/m² | - |
| 1787677520 | 34.44° C | 58% | 1019.8 hPa | 0 mm | - | 971 W/m² | - |
| 1787677220 | 34.44° C | 60% | 1019.9 hPa | 0 mm | - | 987 W/m² | - |
| 1787676919 | 35° C | 59% | 1020.3 hPa | 0 mm | - | 983 W/m² | - |
| 1787676614 | 34.44° C | 58% | 1020.4 hPa | 0 mm | - | 1005 W/m² | - |
| 1787676311 | 34.44° C | 59% | 1020.2 hPa | 0 mm | - | 1001 W/m² | - |
| 1787676007 | 35° C | 60% | 1020.1 hPa | 0 mm | - | 986 W/m² | - |
| 1787675702 | 34.44° C | 59% | 1020.3 hPa | 0 mm | - | 978 W/m² | - |
| 1787675401 | 34.44° C | 61% | 1020.3 hPa | 0 mm | - | 968 W/m² | - |
| 1787675096 | 34.44° C | 61% | 1020.3 hPa | 0 mm | - | 959 W/m² | - |
| 1787674795 | 34.44° C | 59% | 1020.5 hPa | 0 mm | - | 950 W/m² | - |
| 1787674492 | 34.44° C | 60% | 1020.8 hPa | 0 mm | - | 931 W/m² | - |
| 1787674187 | 35° C | 60% | 1020.5 hPa | 0 mm | - | 922 W/m² | - |
| 1787673886 | 34.44° C | 61% | 1020.6 hPa | 0 mm | - | 912 W/m² | - |
| 1787673582 | 34.44° C | 59% | 1020.8 hPa | 0 mm | - | 892 W/m² | - |
| 1787673282 | 34.44° C | 59% | 1020.8 hPa | 0 mm | - | 886 W/m² | - |
* Rain latest hour (hover to see other rain measurements)
** Current wind speed in m/s (hover to see current wind gust speed)